Time,TemperatureF,DewpointF,PressureIn,WindDirection,WindDirectionDegrees,WindSpeedMPH,WindSpeedGustMPH,Humidity,HourlyPrecipIn,Conditions,Clouds,dailyrainin,SoftwareType,DateUTC
2013-01-20 00:04:00,33.9,31.6,30.23,ENE,58,1.0,1.0,91,0.00,,,0.00,Wunderground v.1.15,2013-01-20 05:04:00,
2013-01-20 00:10:00,33.8,31.2,30.23,ENE,58,0.0,0.0,90,0.00,,,0.00,Wunderground v.1.15,2013-01-20 05:10:00,
2013-01-20 00:12:00,33.6,31.0,30.23,ENE,58,0.0,0.0,90,0.00,,,0.00,Wunderground v.1.15,2013-01-20 05:12:00,
2013-01-20 00:17:00,33.6,31.0,30.23,NW,318,0.0,0.0,90,0.00,,,0.00,Wunderground v.1.15,2013-01-20 05:17:00,
2013-01-20 00:20:00,33.9,31.0,30.23,NW,323,0.0,0.0,89,0.00,,,0.00,Wunderground v.1.15,2013-01-20 05:20:00,
2013-01-20 00:26:00,34.9,30.6,30.23,North,352,0.0,0.0,84,0.00,,,0.00,Wunderground v.1.15,2013-01-20 05:26:00,
2013-01-20 00:30:00,35.6,30.3,30.23,North,5,0.0,1.0,81,0.00,,,0.00,Wunderground v.1.15,2013-01-20 05:30:00,
2013-01-20 00:36:00,37.1,30.6,30.22,NW,321,1.0,3.0,77,0.00,,,0.00,Wunderground v.1.15,2013-01-20 05:36:00,
2013-01-20 00:42:00,38.1,30.5,30.22,North,358,2.0,3.0,74,0.00,,,0.00,Wunderground v.1.15,2013-01-20 05:42:00,
2013-01-20 00:48:00,39.1,30.8,30.22,North,357,4.0,7.0,72,0.00,,,0.00,Wunderground v.1.15,2013-01-20 05:48:00,
2013-01-20 00:54:00,39.9,30.5,30.22,NNE,21,5.0,8.0,69,0.00,,,0.00,Wunderground v.1.15,2013-01-20 05:54:00,
2013-01-20 01:00:00,40.8,30.7,30.23,NNE,25,7.0,7.0,67,0.00,,,0.00,Wunderground v.1.15,2013-01-20 06:00:00,
2013-01-20 01:06:00,41.3,30.8,30.23,NNE,13,7.0,8.0,66,0.00,,,0.00,Wunderground v.1.15,2013-01-20 06:06:00,
2013-01-20 01:12:00,41.4,30.9,30.22,North,1,7.0,8.0,66,0.00,,,0.00,Wunderground v.1.15,2013-01-20 06:12:00,
2013-01-20 01:18:00,41.1,30.6,30.22,NNE,18,6.0,8.0,66,0.00,,,0.00,Wunderground v.1.15,2013-01-20 06:18:00,
2013-01-20 01:24:00,40.9,30.4,30.22,NNE,23,5.0,7.0,66,0.00,,,0.00,Wunderground v.1.15,2013-01-20 06:24:00,
2013-01-20 01:30:00,40.9,30.4,30.22,North,7,5.0,5.0,66,0.00,,,0.00,Wunderground v.1.15,2013-01-20 06:30:00,
2013-01-20 01:36:00,40.8,30.3,30.22,North,11,5.0,5.0,66,0.00,,,0.00,Wunderground v.1.15,2013-01-20 06:36:00,
2013-01-20 01:42:00,40.9,30.4,30.22,North,6,6.0,7.0,66,0.00,,,0.00,Wunderground v.1.15,2013-01-20 06:42:00,
2013-01-20 01:48:00,40.7,30.2,30.22,North,349,7.0,7.0,66,0.00,,,0.00,Wunderground v.1.15,2013-01-20 06:48:00,
2013-01-20 01:54:00,40.4,30.3,30.21,NNW,345,5.0,7.0,67,0.00,,,0.00,Wunderground v.1.15,2013-01-20 06:54:00,
2013-01-20 02:00:00,40.3,30.2,30.21,North,1,5.0,5.0,67,0.00,,,0.00,Wunderground v.1.15,2013-01-20 07:00:00,
2013-01-20 02:06:00,40.4,30.3,30.22,NNE,16,5.0,5.0,67,0.00,,,0.00,Wunderground v.1.15,2013-01-20 07:06:00,
2013-01-20 02:12:00,40.7,30.2,30.22,North,355,5.0,5.0,66,0.00,,,0.00,Wunderground v.1.15,2013-01-20 07:12:00,
2013-01-20 02:18:00,41.0,30.5,30.22,North,8,6.0,7.0,66,0.00,,,0.00,Wunderground v.1.15,2013-01-20 07:18:00,
2013-01-20 02:24:00,41.0,30.5,30.22,North,357,6.0,9.0,66,0.00,,,0.00,Wunderground v.1.15,2013-01-20 07:24:00,
2013-01-20 02:30:00,41.0,30.5,30.22,North,354,6.0,6.0,66,0.00,,,0.00,Wunderground v.1.15,2013-01-20 07:30:00,
2013-01-20 02:36:00,40.9,30.4,30.22,North,9,5.0,7.0,66,0.00,,,0.00,Wunderground v.1.15,2013-01-20 07:36:00,
2013-01-20 02:42:00,40.9,30.8,30.22,North,1,5.0,6.0,67,0.00,,,0.00,Wunderground v.1.15,2013-01-20 07:42:00,
2013-01-20 02:48:00,40.9,30.4,30.22,North,9,6.0,7.0,66,0.00,,,0.00,Wunderground v.1.15,2013-01-20 07:48:00,
2013-01-20 02:54:00,40.7,30.6,30.22,NNW,339,6.0,6.0,67,0.00,,,0.00,Wunderground v.1.15,2013-01-20 07:54:00,
2013-01-20 03:00:00,40.8,30.7,30.22,North,3,5.0,5.0,67,0.00,,,0.00,Wunderground v.1.15,2013-01-20 08:00:00,
2013-01-20 03:06:00,40.9,30.8,30.21,North,8,6.0,8.0,67,0.00,,,0.00,Wunderground v.1.15,2013-01-20 08:06:00,
2013-01-20 03:12:00,40.8,30.7,30.22,North,3,7.0,8.0,67,0.00,,,0.00,Wunderground v.1.15,2013-01-20 08:12:00,
2013-01-20 03:18:00,40.9,30.8,30.22,NNE,32,7.0,8.0,67,0.00,,,0.00,Wunderground v.1.15,2013-01-20 08:18:00,
2013-01-20 03:24:00,41.0,30.9,30.21,North,5,7.0,13.0,67,0.00,,,0.00,Wunderground v.1.15,2013-01-20 08:24:00,
2013-01-20 03:30:00,40.9,30.8,30.21,North,354,7.0,7.0,67,0.00,,,0.00,Wunderground v.1.15,2013-01-20 08:30:00,
2013-01-20 03:36:00,40.9,30.8,30.21,NNE,27,7.0,10.0,67,0.00,,,0.00,Wunderground v.1.15,2013-01-20 08:36:00,
2013-01-20 03:42:00,40.8,30.7,30.21,North,4,7.0,9.0,67,0.00,,,0.00,Wunderground v.1.15,2013-01-20 08:42:00,
2013-01-20 03:48:00,40.6,30.9,30.21,NNE,17,7.0,9.0,68,0.00,,,0.00,Wunderground v.1.15,2013-01-20 08:48:00,
2013-01-20 03:54:00,40.5,30.8,30.21,North,4,7.0,7.0,68,0.00,,,0.00,Wunderground v.1.15,2013-01-20 08:54:00,
2013-01-20 04:00:00,40.5,30.8,30.21,NNE,20,8.0,8.0,68,0.00,,,0.00,Wunderground v.1.15,2013-01-20 09:00:00,
2013-01-20 04:06:00,40.5,30.8,30.22,North,360,9.0,9.0,68,0.00,,,0.00,Wunderground v.1.15,2013-01-20 09:06:00,
2013-01-20 04:12:00,40.5,30.8,30.22,North,360,9.0,10.0,68,0.00,,,0.00,Wunderground v.1.15,2013-01-20 09:12:00,
2013-01-20 04:18:00,40.4,30.7,30.21,NNW,338,8.0,13.0,68,0.00,,,0.00,Wunderground v.1.15,2013-01-20 09:18:00,
2013-01-20 04:24:00,40.4,30.7,30.21,North,354,8.0,9.0,68,0.00,,,0.00,Wunderground v.1.15,2013-01-20 09:24:00,
2013-01-20 04:30:00,40.2,30.8,30.21,North,9,7.0,7.0,69,0.00,,,0.00,Wunderground v.1.15,2013-01-20 09:30:00,
2013-01-20 04:38:00,40.1,30.7,30.21,North,354,7.0,8.0,69,0.00,,,0.00,Wunderground v.1.15,2013-01-20 09:38:00,
2013-01-20 04:44:00,39.9,30.5,30.21,North,356,6.0,9.0,69,0.00,,,0.00,Wunderground v.1.15,2013-01-20 09:44:00,
2013-01-20 04:50:00,39.6,30.6,30.21,NNE,13,6.0,9.0,70,0.00,,,0.00,Wunderground v.1.15,2013-01-20 09:50:00,
2013-01-20 04:56:00,39.5,30.5,30.21,North,6,6.0,9.0,70,0.00,,,0.00,Wunderground v.1.15,2013-01-20 09:56:00,
2013-01-20 05:01:00,39.4,30.4,30.21,North,5,6.0,7.0,70,0.00,,,0.00,Wunderground v.1.15,2013-01-20 10:01:00,
2013-01-20 05:08:00,39.3,30.3,30.21,North,6,6.0,9.0,70,0.00,,,0.00,Wunderground v.1.15,2013-01-20 10:08:00,
2013-01-20 05:14:00,39.2,30.6,30.21,North,352,6.0,6.0,71,0.00,,,0.00,Wunderground v.1.15,2013-01-20 10:14:00,
2013-01-20 05:20:00,39.0,30.4,30.21,North,352,6.0,6.0,71,0.00,,,0.00,Wunderground v.1.15,2013-01-20 10:20:00,
2013-01-20 05:26:00,39.0,30.4,30.21,North,6,6.0,9.0,71,0.00,,,0.00,Wunderground v.1.15,2013-01-20 10:26:00,
2013-01-20 05:32:00,38.9,30.3,30.21,North,9,6.0,6.0,71,0.00,,,0.00,Wunderground v.1.15,2013-01-20 10:32:00,
2013-01-20 05:38:00,38.9,30.3,30.21,NNE,19,6.0,6.0,71,0.00,,,0.00,Wunderground v.1.15,2013-01-20 10:38:00,
2013-01-20 05:44:00,39.0,30.4,30.21,North,354,5.0,6.0,71,0.00,,,0.00,Wunderground v.1.15,2013-01-20 10:44:00,
2013-01-20 05:50:00,39.1,30.5,30.21,NNW,340,6.0,6.0,71,0.00,,,0.00,Wunderground v.1.15,2013-01-20 10:50:00,
2013-01-20 05:56:00,39.2,30.6,30.21,North,3,5.0,10.0,71,0.00,,,0.00,Wunderground v.1.15,2013-01-20 10:56:00,
2013-01-20 06:02:00,39.0,30.4,30.21,North,356,4.0,5.0,71,0.00,,,0.00,Wunderground v.1.15,2013-01-20 11:02:00,
2013-01-20 06:07:00,38.8,30.2,30.21,North,354,4.0,5.0,71,0.00,,,0.00,Wunderground v.1.15,2013-01-20 11:07:00,
2013-01-20 06:14:00,38.7,30.4,30.21,NNW,345,3.0,4.0,72,0.00,,,0.00,Wunderground v.1.15,2013-01-20 11:14:00,
2013-01-20 06:20:00,38.6,30.4,30.21,North,8,3.0,4.0,72,0.00,,,0.00,Wunderground v.1.15,2013-01-20 11:20:00,
2013-01-20 06:26:00,38.6,30.4,30.21,NNW,347,3.0,5.0,72,0.00,,,0.00,Wunderground v.1.15,2013-01-20 11:26:00,
2013-01-20 06:32:00,38.6,30.4,30.21,NW,326,3.0,3.0,72,0.00,,,0.00,Wunderground v.1.15,2013-01-20 11:32:00,
2013-01-20 06:38:00,38.6,30.4,30.21,North,1,2.0,4.0,72,0.00,,,0.00,Wunderground v.1.15,2013-01-20 11:38:00,
2013-01-20 06:43:00,38.7,30.4,30.21,NNW,344,3.0,6.0,72,0.00,,,0.00,Wunderground v.1.15,2013-01-20 11:43:00,
2013-01-20 06:50:00,38.7,30.4,30.21,NW,324,3.0,3.0,72,0.00,,,0.00,Wunderground v.1.15,2013-01-20 11:50:00,
2013-01-20 06:56:00,38.6,30.4,30.21,NNW,340,3.0,3.0,72,0.00,,,0.00,Wunderground v.1.15,2013-01-20 11:56:00,
2013-01-20 07:02:00,38.6,30.4,30.22,North,352,2.0,3.0,72,0.00,,,0.00,Wunderground v.1.15,2013-01-20 12:02:00,
2013-01-20 07:08:00,38.6,30.4,30.22,NNW,347,3.0,4.0,72,0.00,,,0.00,Wunderground v.1.15,2013-01-20 12:08:00,
2013-01-20 07:14:00,38.6,30.4,30.22,NNE,18,3.0,3.0,72,0.00,,,0.00,Wunderground v.1.15,2013-01-20 12:14:00,
2013-01-20 07:20:00,38.6,30.4,30.22,North,352,3.0,5.0,72,0.00,,,0.00,Wunderground v.1.15,2013-01-20 12:20:00,
2013-01-20 07:26:00,38.9,30.3,30.22,NNW,343,3.0,5.0,71,0.00,,,0.00,Wunderground v.1.15,2013-01-20 12:26:00,
2013-01-20 07:32:00,38.9,30.3,30.22,NNW,339,3.0,4.0,71,0.00,,,0.00,Wunderground v.1.15,2013-01-20 12:32:00,
2013-01-20 07:38:00,38.8,30.2,30.22,NNW,330,2.0,4.0,71,0.00,,,0.00,Wunderground v.1.15,2013-01-20 12:38:00,
2013-01-20 07:44:00,38.8,30.5,30.23,NNW,344,3.0,3.0,72,0.00,,,0.00,Wunderground v.1.15,2013-01-20 12:44:00,
2013-01-20 07:50:00,38.7,30.4,30.23,NNW,345,3.0,3.0,72,0.00,,,0.00,Wunderground v.1.15,2013-01-20 12:50:00,
2013-01-20 07:56:00,38.7,30.4,30.23,NNW,344,3.0,4.0,72,0.00,,,0.00,Wunderground v.1.15,2013-01-20 12:56:00,
2013-01-20 08:02:00,38.9,30.6,30.23,North,8,3.0,3.0,72,0.00,,,0.00,Wunderground v.1.15,2013-01-20 13:02:00,
2013-01-20 08:08:00,39.2,30.6,30.23,North,354,3.0,6.0,71,0.00,,,0.00,Wunderground v.1.15,2013-01-20 13:08:00,
2013-01-20 08:14:00,39.5,30.9,30.23,North,3,3.0,5.0,71,0.00,,,0.00,Wunderground v.1.15,2013-01-20 13:14:00,
2013-01-20 08:20:00,39.9,30.9,30.23,North,352,3.0,3.0,70,0.00,,,0.00,Wunderground v.1.15,2013-01-20 13:20:00,
2013-01-20 08:26:00,40.4,31.4,30.23,NNW,348,2.0,5.0,70,0.00,,,0.00,Wunderground v.1.15,2013-01-20 13:26:00,
2013-01-20 08:32:00,40.7,31.3,30.23,North,356,4.0,4.0,69,0.00,,,0.00,Wunderground v.1.15,2013-01-20 13:32:00,
2013-01-20 08:38:00,41.0,31.6,30.23,North,5,4.0,6.0,69,0.00,,,0.00,Wunderground v.1.15,2013-01-20 13:38:00,
2013-01-20 08:44:00,41.4,32.0,30.23,North,9,5.0,6.0,69,0.00,,,0.00,Wunderground v.1.15,2013-01-20 13:44:00,
2013-01-20 08:50:00,41.6,31.8,30.23,North,8,5.0,5.0,68,0.00,,,0.00,Wunderground v.1.15,2013-01-20 13:50:00,
2013-01-20 08:56:00,41.8,32.0,30.24,North,9,5.0,9.0,68,0.00,,,0.00,Wunderground v.1.15,2013-01-20 13:56:00,
2013-01-20 09:01:00,41.9,31.7,30.24,NNW,346,6.0,8.0,67,0.00,,,0.00,Wunderground v.1.15,2013-01-20 14:01:00,
2013-01-20 09:08:00,42.0,32.2,30.24,NNE,14,7.0,10.0,68,0.00,,,0.00,Wunderground v.1.15,2013-01-20 14:08:00,
2013-01-20 09:14:00,42.2,32.0,30.24,North,1,8.0,12.0,67,0.00,,,0.00,Wunderground v.1.15,2013-01-20 14:14:00,
2013-01-20 09:20:00,42.4,32.2,30.24,North,354,7.0,7.0,67,0.00,,,0.00,Wunderground v.1.15,2013-01-20 14:20:00,
2013-01-20 09:26:00,42.5,32.7,30.24,North,4,7.0,10.0,68,0.00,,,0.00,Wunderground v.1.15,2013-01-20 14:26:00,
2013-01-20 09:32:00,42.7,32.1,30.24,North,6,7.0,10.0,66,0.00,,,0.00,Wunderground v.1.15,2013-01-20 14:32:00,
2013-01-20 09:38:00,42.8,32.6,30.24,North,8,8.0,12.0,67,0.00,,,0.00,Wunderground v.1.15,2013-01-20 14:38:00,
2013-01-20 09:44:00,42.9,32.7,30.25,NNE,18,9.0,10.0,67,0.00,,,0.00,Wunderground v.1.15,2013-01-20 14:44:00,
2013-01-20 09:50:00,43.1,33.3,30.24,NNE,30,8.0,8.0,68,0.00,,,0.00,Wunderground v.1.15,2013-01-20 14:50:00,
2013-01-20 09:56:00,43.5,33.3,30.24,North,352,8.0,11.0,67,0.00,,,0.00,Wunderground v.1.15,2013-01-20 14:56:00,
2013-01-20 10:02:00,43.7,33.1,30.24,NNE,19,8.0,11.0,66,0.00,,,0.00,Wunderground v.1.15,2013-01-20 15:02:00,
2013-01-20 10:08:00,43.8,33.9,30.24,North,11,9.0,13.0,68,0.00,,,0.00,Wunderground v.1.15,2013-01-20 15:08:00,
2013-01-20 10:14:00,44.1,34.2,30.24,NNW,344,7.0,9.0,68,0.00,,,0.00,Wunderground v.1.15,2013-01-20 15:14:00,
2013-01-20 10:20:00,44.4,34.1,30.24,North,359,6.0,12.0,67,0.00,,,0.00,Wunderground v.1.15,2013-01-20 15:20:00,
2013-01-20 10:26:00,44.4,33.7,30.24,NNE,13,9.0,12.0,66,0.00,,,0.00,Wunderground v.1.15,2013-01-20 15:26:00,
2013-01-20 10:32:00,44.5,34.2,30.25,North,9,10.0,10.0,67,0.00,,,0.00,Wunderground v.1.15,2013-01-20 15:32:00,
2013-01-20 10:38:00,44.9,34.6,30.25,NNE,18,9.0,10.0,67,0.00,,,0.00,Wunderground v.1.15,2013-01-20 15:38:00,
2013-01-20 10:44:00,45.3,35.0,30.25,North,356,9.0,9.0,67,0.00,,,0.00,Wunderground v.1.15,2013-01-20 15:44:00,
2013-01-20 10:50:00,45.8,35.5,30.25,NNE,14,9.0,10.0,67,0.00,,,0.00,Wunderground v.1.15,2013-01-20 15:50:00,
2013-01-20 10:56:00,46.3,35.6,30.25,North,1,8.0,10.0,66,0.00,,,0.00,Wunderground v.1.15,2013-01-20 15:56:00,
2013-01-20 11:02:00,46.6,35.5,30.25,North,360,8.0,10.0,65,0.00,,,0.00,Wunderground v.1.15,2013-01-20 16:02:00,
2013-01-20 11:08:00,46.8,35.6,30.25,NNE,18,9.0,11.0,65,0.00,,,0.00,Wunderground v.1.15,2013-01-20 16:08:00,
2013-01-20 11:14:00,47.1,35.9,30.25,North,352,8.0,9.0,65,0.00,,,0.00,Wunderground v.1.15,2013-01-20 16:14:00,
2013-01-20 11:20:00,47.4,35.8,30.24,North,358,8.0,12.0,64,0.00,,,0.00,Wunderground v.1.15,2013-01-20 16:20:00,
2013-01-20 11:26:00,47.4,35.0,30.25,NNE,27,9.0,12.0,62,0.00,,,0.00,Wunderground v.1.15,2013-01-20 16:26:00,
2013-01-20 11:32:00,47.7,35.7,30.24,North,6,9.0,10.0,63,0.00,,,0.00,Wunderground v.1.15,2013-01-20 16:32:00,
2013-01-20 11:38:00,47.9,35.9,30.24,NE,42,8.0,12.0,63,0.00,,,0.00,Wunderground v.1.15,2013-01-20 16:38:00,
2013-01-20 11:43:00,47.9,35.5,30.23,NNE,21,8.0,10.0,62,0.00,,,0.00,Wunderground v.1.15,2013-01-20 16:43:00,
2013-01-20 11:50:00,48.3,35.5,30.23,North,11,7.0,9.0,61,0.00,,,0.00,Wunderground v.1.15,2013-01-20 16:50:00,
2013-01-20 11:55:00,48.1,35.3,30.23,North,356,8.0,17.0,61,0.00,,,0.00,Wunderground v.1.15,2013-01-20 16:55:00,
2013-01-20 12:02:00,48.2,36.2,30.22,NE,36,10.0,11.0,63,0.00,,,0.00,Wunderground v.1.15,2013-01-20 17:02:00,
2013-01-20 12:08:00,48.6,35.3,30.22,NNE,14,8.0,11.0,60,0.00,,,0.00,Wunderground v.1.15,2013-01-20 17:08:00,
2013-01-20 12:14:00,48.8,36.4,30.22,North,357,8.0,11.0,62,0.00,,,0.00,Wunderground v.1.15,2013-01-20 17:14:00,
2013-01-20 12:19:00,48.9,34.8,30.22,NE,56,8.0,9.0,58,0.00,,,0.00,Wunderground v.1.15,2013-01-20 17:19:00,
2013-01-20 12:26:00,48.9,35.2,30.21,North,359,8.0,9.0,59,0.00,,,0.00,Wunderground v.1.15,2013-01-20 17:26:00,
2013-01-20 12:32:00,49.2,35.9,30.21,NNE,26,8.0,11.0,60,0.00,,,0.00,Wunderground v.1.15,2013-01-20 17:32:00,
2013-01-20 12:37:00,49.0,34.9,30.21,NNE,23,8.0,11.0,58,0.00,,,0.00,Wunderground v.1.15,2013-01-20 17:37:00,
2013-01-20 12:44:00,49.4,35.7,30.20,NNW,347,8.0,12.0,59,0.00,,,0.00,Wunderground v.1.15,2013-01-20 17:44:00,
2013-01-20 12:50:00,49.6,35.4,30.20,NE,34,7.0,7.0,58,0.00,,,0.00,Wunderground v.1.15,2013-01-20 17:50:00,
2013-01-20 12:56:00,50.1,35.0,30.19,NNE,30,4.0,7.0,56,0.00,,,0.00,Wunderground v.1.15,2013-01-20 17:56:00,
2013-01-20 13:02:00,50.0,34.5,30.19,North,354,7.0,13.0,55,0.00,,,0.00,Wunderground v.1.15,2013-01-20 18:02:00,
2013-01-20 13:07:00,49.7,34.2,30.19,NNE,15,10.0,13.0,55,0.00,,,0.00,Wunderground v.1.15,2013-01-20 18:07:00,
2013-01-20 13:14:00,50.1,35.0,30.18,NNE,27,8.0,13.0,56,0.00,,,0.00,Wunderground v.1.15,2013-01-20 18:14:00,
2013-01-20 13:20:00,50.1,35.0,30.18,NNE,30,8.0,8.0,56,0.00,,,0.00,Wunderground v.1.15,2013-01-20 18:20:00,
2013-01-20 13:26:00,50.3,35.2,30.18,North,356,8.0,8.0,56,0.00,,,0.00,Wunderground v.1.15,2013-01-20 18:26:00,
2013-01-20 13:32:00,50.5,34.0,30.17,North,360,8.0,8.0,53,0.00,,,0.00,Wunderground v.1.15,2013-01-20 18:32:00,
2013-01-20 13:38:00,50.5,34.5,30.17,North,355,9.0,11.0,54,0.00,,,0.00,Wunderground v.1.15,2013-01-20 18:38:00,
2013-01-20 13:44:00,50.4,33.9,30.17,North,3,10.0,11.0,53,0.00,,,0.00,Wunderground v.1.15,2013-01-20 18:44:00,
2013-01-20 13:50:00,50.7,35.1,30.17,North,9,8.0,8.0,55,0.00,,,0.00,Wunderground v.1.15,2013-01-20 18:50:00,
2013-01-20 13:55:00,51.0,34.5,30.17,North,6,8.0,9.0,53,0.00,,,0.00,Wunderground v.1.15,2013-01-20 18:55:00,
2013-01-20 14:02:00,51.0,34.9,30.16,North,357,7.0,8.0,54,0.00,,,0.00,Wunderground v.1.15,2013-01-20 19:02:00,
2013-01-20 14:08:00,51.4,35.8,30.16,NNE,15,6.0,12.0,55,0.00,,,0.00,Wunderground v.1.15,2013-01-20 19:08:00,
2013-01-20 14:14:00,51.2,34.2,30.16,North,354,8.0,11.0,52,0.00,,,0.00,Wunderground v.1.15,2013-01-20 19:14:00,
2013-01-20 14:20:00,51.2,33.7,30.16,NNE,15,8.0,9.0,51,0.00,,,0.00,Wunderground v.1.15,2013-01-20 19:20:00,
2013-01-20 14:26:00,51.7,35.1,30.16,NNE,13,7.0,9.0,53,0.00,,,0.00,Wunderground v.1.15,2013-01-20 19:26:00,
2013-01-20 14:32:00,51.9,33.8,30.16,NE,41,6.0,11.0,50,0.00,,,0.00,Wunderground v.1.15,2013-01-20 19:32:00,
2013-01-20 14:38:00,51.7,34.6,30.16,North,1,7.0,11.0,52,0.00,,,0.00,Wunderground v.1.15,2013-01-20 19:38:00,
2013-01-20 14:44:00,51.8,34.7,30.16,NNW,335,7.0,10.0,52,0.00,,,0.00,Wunderground v.1.15,2013-01-20 19:44:00,
2013-01-20 14:50:00,52.1,34.5,30.15,North,11,7.0,7.0,51,0.00,,,0.00,Wunderground v.1.15,2013-01-20 19:50:00,
2013-01-20 14:56:00,52.1,35.0,30.16,North,9,9.0,10.0,52,0.00,,,0.00,Wunderground v.1.15,2013-01-20 19:56:00,
2013-01-20 15:02:00,52.4,35.3,30.15,North,4,8.0,9.0,52,0.00,,,0.00,Wunderground v.1.15,2013-01-20 20:02:00,
2013-01-20 15:08:00,52.4,34.8,30.15,North,350,6.0,11.0,51,0.00,,,0.00,Wunderground v.1.15,2013-01-20 20:08:00,
2013-01-20 15:14:00,52.4,34.3,30.15,NNE,15,7.0,9.0,50,0.00,,,0.00,Wunderground v.1.15,2013-01-20 20:14:00,
2013-01-20 15:20:00,52.7,35.1,30.15,North,8,7.0,7.0,51,0.00,,,0.00,Wunderground v.1.15,2013-01-20 20:20:00,
2013-01-20 15:26:00,52.8,34.2,30.16,North,11,7.0,10.0,49,0.00,,,0.00,Wunderground v.1.15,2013-01-20 20:26:00,
2013-01-20 15:32:00,52.7,35.1,30.16,NW,314,8.0,8.0,51,0.00,,,0.00,Wunderground v.1.15,2013-01-20 20:32:00,
2013-01-20 15:38:00,52.9,35.2,30.16,NNW,340,7.0,8.0,51,0.00,,,0.00,Wunderground v.1.15,2013-01-20 20:38:00,
2013-01-20 15:44:00,53.2,35.5,30.16,NNE,31,6.0,8.0,51,0.00,,,0.00,Wunderground v.1.15,2013-01-20 20:44:00,
2013-01-20 15:50:00,53.0,34.8,30.16,North,1,7.0,7.0,50,0.00,,,0.00,Wunderground v.1.15,2013-01-20 20:50:00,
2013-01-20 15:56:00,53.2,35.0,30.15,NNE,14,6.0,8.0,50,0.00,,,0.00,Wunderground v.1.15,2013-01-20 20:56:00,
2013-01-20 16:02:00,53.1,34.9,30.15,North,354,6.0,6.0,50,0.00,,,0.00,Wunderground v.1.15,2013-01-20 21:02:00,
2013-01-20 16:08:00,53.4,35.2,30.15,North,11,4.0,8.0,50,0.00,,,0.00,Wunderground v.1.15,2013-01-20 21:08:00,
2013-01-20 16:14:00,53.3,34.6,30.16,North,354,4.0,8.0,49,0.00,,,0.00,Wunderground v.1.15,2013-01-20 21:14:00,
2013-01-20 16:20:00,53.1,34.9,30.16,NNE,13,7.0,9.0,50,0.00,,,0.00,Wunderground v.1.15,2013-01-20 21:20:00,
2013-01-20 16:26:00,53.1,34.4,30.15,NNE,21,8.0,9.0,49,0.00,,,0.00,Wunderground v.1.15,2013-01-20 21:26:00,
2013-01-20 16:32:00,53.1,34.4,30.15,NNE,13,7.0,9.0,49,0.00,,,0.00,Wunderground v.1.15,2013-01-20 21:32:00,
2013-01-20 16:38:00,53.1,33.9,30.15,North,5,6.0,9.0,48,0.00,,,0.00,Wunderground v.1.15,2013-01-20 21:38:00,
2013-01-20 16:44:00,53.1,34.4,30.15,North,8,5.0,6.0,49,0.00,,,0.00,Wunderground v.1.15,2013-01-20 21:44:00,
2013-01-20 16:50:00,53.1,33.9,30.15,NNE,18,5.0,5.0,48,0.00,,,0.00,Wunderground v.1.15,2013-01-20 21:50:00,
2013-01-20 16:56:00,53.0,34.3,30.15,NNW,333,5.0,6.0,49,0.00,,,0.00,Wunderground v.1.15,2013-01-20 21:56:00,
2013-01-20 17:01:00,52.7,35.6,30.16,NNE,15,5.0,8.0,52,0.00,,,0.00,Wunderground v.1.15,2013-01-20 22:01:00,
2013-01-20 17:08:00,52.4,35.8,30.16,NNW,345,4.0,8.0,53,0.00,,,0.00,Wunderground v.1.15,2013-01-20 22:08:00,
2013-01-20 17:14:00,52.1,35.5,30.16,North,352,4.0,4.0,53,0.00,,,0.00,Wunderground v.1.15,2013-01-20 22:14:00,
2013-01-20 17:20:00,51.9,35.8,30.16,NW,322,4.0,4.0,54,0.00,,,0.00,Wunderground v.1.15,2013-01-20 22:20:00,
2013-01-20 17:26:00,51.6,35.9,30.16,NNW,328,3.0,4.0,55,0.00,,,0.00,Wunderground v.1.15,2013-01-20 22:26:00,
2013-01-20 17:32:00,51.2,35.6,30.16,North,354,3.0,3.0,55,0.00,,,0.00,Wunderground v.1.15,2013-01-20 22:32:00,
2013-01-20 17:38:00,50.7,35.6,30.16,North,355,3.0,5.0,56,0.00,,,0.00,Wunderground v.1.15,2013-01-20 22:38:00,
2013-01-20 17:44:00,50.1,35.4,30.16,NNE,13,2.0,2.0,57,0.00,,,0.00,Wunderground v.1.15,2013-01-20 22:44:00,
2013-01-20 17:50:00,49.6,35.4,30.16,North,357,2.0,2.0,58,0.00,,,0.00,Wunderground v.1.15,2013-01-20 22:50:00,
2013-01-20 17:56:00,49.4,35.2,30.16,North,5,2.0,2.0,58,0.00,,,0.00,Wunderground v.1.15,2013-01-20 22:56:00,
2013-01-20 18:02:00,49.1,35.4,30.16,NNE,25,1.0,2.0,59,0.00,,,0.00,Wunderground v.1.15,2013-01-20 23:02:00,
2013-01-20 18:08:00,48.6,34.9,30.16,NE,40,1.0,2.0,59,0.00,,,0.00,Wunderground v.1.15,2013-01-20 23:08:00,
2013-01-20 18:14:00,48.0,34.8,30.17,NE,47,2.0,3.0,60,0.00,,,0.00,Wunderground v.1.15,2013-01-20 23:14:00,
2013-01-20 18:20:00,47.0,34.6,30.17,NE,49,3.0,3.0,62,0.00,,,0.00,Wunderground v.1.15,2013-01-20 23:20:00,
2013-01-20 18:26:00,46.7,34.4,30.17,North,11,2.0,3.0,62,0.00,,,0.00,Wunderground v.1.15,2013-01-20 23:26:00,
2013-01-20 18:32:00,46.2,34.3,30.17,North,11,1.0,2.0,63,0.00,,,0.00,Wunderground v.1.15,2013-01-20 23:32:00,
2013-01-20 18:38:00,46.3,34.0,30.17,NNE,21,2.0,4.0,62,0.00,,,0.00,Wunderground v.1.15,2013-01-20 23:38:00,
2013-01-20 18:44:00,45.4,33.1,30.17,NNE,26,1.0,2.0,62,0.00,,,0.00,Wunderground v.1.15,2013-01-20 23:44:00,
2013-01-20 18:50:00,45.3,33.8,30.17,NE,51,1.0,2.0,64,0.00,,,0.00,Wunderground v.1.15,2013-01-20 23:50:00,
2013-01-20 18:56:00,44.8,33.0,30.18,NE,37,2.0,3.0,63,0.00,,,0.00,Wunderground v.1.15,2013-01-20 23:56:00,
2013-01-20 19:02:00,44.2,32.4,30.18,NE,44,1.0,2.0,63,0.00,,,0.00,Wunderground v.1.15,2013-01-21 00:02:00,
2013-01-20 19:07:00,43.7,31.5,30.18,NE,42,1.0,2.0,62,0.00,,,0.00,Wunderground v.1.15,2013-01-21 00:07:00,
2013-01-20 19:14:00,43.1,30.6,30.18,NE,42,1.0,2.0,61,0.00,,,0.00,Wunderground v.1.15,2013-01-21 00:14:00,
2013-01-20 19:20:00,42.4,29.5,30.18,NE,44,0.0,2.0,60,0.00,,,0.00,Wunderground v.1.15,2013-01-21 00:20:00,
2013-01-20 19:25:00,41.5,31.4,30.18,NE,44,0.0,2.0,67,0.00,,,0.00,Wunderground v.1.15,2013-01-21 00:25:00,
2013-01-20 19:32:00,40.5,31.5,30.17,NE,44,0.0,2.0,70,0.00,,,0.00,Wunderground v.1.15,2013-01-21 00:32:00,
2013-01-20 19:38:00,39.7,30.4,30.17,NE,44,0.0,2.0,69,0.00,,,0.00,Wunderground v.1.15,2013-01-21 00:38:00,
2013-01-20 19:43:00,40.0,29.6,30.17,NE,44,0.0,2.0,66,0.00,,,0.00,Wunderground v.1.15,2013-01-21 00:43:00,
2013-01-20 19:50:00,39.8,31.2,30.17,ENE,63,1.0,2.0,71,0.00,,,0.00,Wunderground v.1.15,2013-01-21 00:50:00,
2013-01-20 19:56:00,39.7,30.0,30.17,NE,44,2.0,2.0,68,0.00,,,0.00,Wunderground v.1.15,2013-01-21 00:56:00,
2013-01-20 20:02:00,39.8,29.4,30.17,NE,44,0.0,2.0,66,0.00,,,0.00,Wunderground v.1.15,2013-01-21 01:02:00,
2013-01-20 20:08:00,39.9,28.3,30.17,NE,44,0.0,2.0,63,0.00,,,0.00,Wunderground v.1.15,2013-01-21 01:08:00,
2013-01-20 20:14:00,39.4,27.5,30.17,NE,44,0.0,2.0,62,0.00,,,0.00,Wunderground v.1.15,2013-01-21 01:14:00,
2013-01-20 20:20:00,38.9,28.1,30.17,NE,44,0.0,2.0,65,0.00,,,0.00,Wunderground v.1.15,2013-01-21 01:20:00,
2013-01-20 20:26:00,38.8,27.7,30.17,NE,44,0.0,2.0,64,0.00,,,0.00,Wunderground v.1.15,2013-01-21 01:26:00,
2013-01-20 20:32:00,38.8,26.9,30.17,NNE,13,0.0,2.0,62,0.00,,,0.00,Wunderground v.1.15,2013-01-21 01:32:00,
2013-01-20 20:37:00,38.7,27.2,30.17,NE,51,1.0,2.0,63,0.00,,,0.00,Wunderground v.1.15,2013-01-21 01:37:00,
2013-01-20 20:44:00,38.2,27.1,30.17,ENE,67,2.0,2.0,64,0.00,,,0.00,Wunderground v.1.15,2013-01-21 01:44:00,
2013-01-20 20:50:00,37.8,27.1,30.17,ENE,67,2.0,2.0,65,0.00,,,0.00,Wunderground v.1.15,2013-01-21 01:50:00,
2013-01-20 20:55:00,38.1,26.6,30.17,ENE,65,2.0,2.0,63,0.00,,,0.00,Wunderground v.1.15,2013-01-21 01:55:00,
2013-01-20 21:04:00,38.4,26.5,30.17,ENE,65,0.0,2.0,62,0.00,,,0.00,Wunderground v.1.15,2013-01-21 02:04:00,
2013-01-20 21:10:00,38.2,26.3,30.17,ENE,65,0.0,2.0,62,0.00,,,0.00,Wunderground v.1.15,2013-01-21 02:10:00,
2013-01-20 21:16:00,37.7,26.2,30.17,ENE,65,0.0,2.0,63,0.00,,,0.00,Wunderground v.1.15,2013-01-21 02:16:00,
2013-01-20 21:22:00,37.1,26.0,30.17,ENE,65,0.0,2.0,64,0.00,,,0.00,Wunderground v.1.15,2013-01-21 02:22:00,
2013-01-20 21:28:00,37.5,26.0,30.17,ENE,58,0.0,2.0,63,0.00,,,0.00,Wunderground v.1.15,2013-01-21 02:28:00,
2013-01-20 21:34:00,37.9,25.6,30.17,ENE,58,1.0,2.0,61,0.00,,,0.00,Wunderground v.1.15,2013-01-21 02:34:00,
2013-01-20 21:40:00,37.7,25.5,30.17,NE,34,2.0,2.0,61,0.00,,,0.00,Wunderground v.1.15,2013-01-21 02:40:00,
2013-01-20 21:46:00,38.1,27.7,30.17,NE,34,1.0,2.0,66,0.00,,,0.00,Wunderground v.1.15,2013-01-21 02:46:00,
2013-01-20 21:52:00,37.5,26.8,30.17,NE,34,0.0,2.0,65,0.00,,,0.00,Wunderground v.1.15,2013-01-21 02:52:00,
2013-01-20 21:58:00,37.4,28.2,30.17,NE,34,0.0,2.0,69,0.00,,,0.00,Wunderground v.1.15,2013-01-21 02:58:00,
2013-01-20 22:04:00,37.4,27.4,30.17,NE,35,0.0,2.0,67,0.00,,,0.00,Wunderground v.1.15,2013-01-21 03:04:00,
2013-01-20 22:09:00,37.0,27.1,30.17,NE,38,1.0,2.0,67,0.00,,,0.00,Wunderground v.1.15,2013-01-21 03:09:00,
2013-01-20 22:16:00,36.1,26.6,30.16,NE,55,1.0,2.0,68,0.00,,,0.00,Wunderground v.1.15,2013-01-21 03:16:00,
2013-01-20 22:22:00,35.9,26.0,30.16,NE,56,1.0,2.0,67,0.00,,,0.00,Wunderground v.1.15,2013-01-21 03:22:00,
2013-01-20 22:28:00,35.6,25.7,30.17,NE,55,0.0,2.0,67,0.00,,,0.00,Wunderground v.1.15,2013-01-21 03:28:00,
2013-01-20 22:34:00,35.3,25.4,30.17,NE,56,0.0,2.0,67,0.00,,,0.00,Wunderground v.1.15,2013-01-21 03:34:00,
2013-01-20 22:40:00,35.9,26.0,30.17,NE,53,0.0,2.0,67,0.00,,,0.00,Wunderground v.1.15,2013-01-21 03:40:00,
2013-01-20 22:46:00,35.7,25.4,30.17,NNE,27,1.0,2.0,66,0.00,,,0.00,Wunderground v.1.15,2013-01-21 03:46:00,
2013-01-20 22:52:00,35.3,25.8,30.17,NNE,19,0.0,2.0,68,0.00,,,0.00,Wunderground v.1.15,2013-01-21 03:52:00,
2013-01-20 22:58:00,35.2,25.7,30.17,NNE,19,0.0,2.0,68,0.00,,,0.00,Wunderground v.1.15,2013-01-21 03:58:00,
2013-01-20 23:04:00,34.9,27.1,30.17,NNE,19,0.0,2.0,73,0.00,,,0.00,Wunderground v.1.15,2013-01-21 04:04:00,
2013-01-20 23:10:00,34.7,26.3,30.17,NNE,18,0.0,2.0,71,0.00,,,0.00,Wunderground v.1.15,2013-01-21 04:10:00,
2013-01-20 23:16:00,34.3,25.9,30.17,NNE,19,0.0,2.0,71,0.00,,,0.00,Wunderground v.1.15,2013-01-21 04:16:00,
2013-01-20 23:22:00,34.1,25.7,30.17,NNE,19,0.0,2.0,71,0.00,,,0.00,Wunderground v.1.15,2013-01-21 04:22:00,
2013-01-20 23:28:00,34.1,25.7,30.17,NNE,20,0.0,2.0,71,0.00,,,0.00,Wunderground v.1.15,2013-01-21 04:28:00,
2013-01-20 23:34:00,34.5,29.0,30.17,NNW,338,0.0,2.0,80,0.00,,,0.00,Wunderground v.1.15,2013-01-21 04:34:00,
2013-01-20 23:40:00,34.8,29.3,30.17,NNW,338,0.0,2.0,80,0.00,,,0.00,Wunderground v.1.15,2013-01-21 04:40:00,
2013-01-20 23:46:00,34.8,30.8,30.17,NNW,338,0.0,2.0,85,0.00,,,0.00,Wunderground v.1.15,2013-01-21 04:46:00,
2013-01-20 23:52:00,35.0,31.8,30.17,NNW,342,0.0,2.0,88,0.00,,,0.00,Wunderground v.1.15,2013-01-21 04:52:00,
2013-01-20 23:58:00,35.1,31.0,30.16,ENE,58,0.0,2.0,85,0.00,,,0.00,Wunderground v.1.15,2013-01-21 04:58:00,